www.pogodaiklimat.ru

Погода и климат >> Архив погоды >> Казахстан >> Павлодар


АРХИВ ПОГОДЫ в Павлодаре

Время (UTC), дата Ветер
(напр.,м/с)
 
Видим.   Явления Облачность Т
(С)
Тd
(С)
f
(%)
Тe
(С)
Тes
(С)
Комфортность P
(гПа)
Po
(гПа)
Тmin
(С)
Tmax
(С)
R
(мм)
R24
(мм)
S
(см)
21 17.08 З 2 20 км 9/5 600 м
[Cb cap Ac trans]
+15.7 +14.1 90 +16 +16 тепло 1014.7 1000.6
00 18.08 С 1 20 км 4/0
[Ac trans]
+15.8 +13.9 88 +16 +16 тепло 1015.0 1000.9
03 18.08 С 3 20 км ясно +20.9 +15.0 69 +24 +29 комфорт 1015.8 1001.8
06 18.08 С 6 20 км 8/4 1000 м
[Cu hum Ac trans]
+25.9 +13.5 46 +28 +30 жарко 1015.4 1001.7 +15.1
09 18.08 С 5 20 км 8/8 1000 м
[Cu hum]
+27.7 +10.3 34 +28 +29 жарко 1015.2 1001.6
12 18.08 СЗ 4 20 км 8/6 1000 м
[Cu hum Ac trans Ci fib]
+27.8 +12.6 39 +29 +30 жарко 1015.8 1002.2
15 18.08 СЗ 1 20 км 6/4 1000 м
[Cu hum Ac trans]
+22.3 +12.0 52 +25 +25 комфорт 1017.7 1003.9 +28.9
18 18.08 штиль 0 20 км 3/0
[Cc]
+18.7 +13.0 69 +19 +19 тепло 1018.5 1004.5 +28.9
21 18.08 СЗ 1 20 км ясно +15.4 +13.4 88 +16 +16 тепло 1018.7 1004.5
00 19.08 штиль 0 20 км 8/4 1000 м
[Sc Ac trans]
+16.3 +11.1 71 +16 +16 тепло 1019.1 1004.9
03 19.08 З 2 20 км 8/4 600 м
[Sc Ac trans]
+20.1 +14.4 70 +23 +25 комфорт 1019.2 1005.2
06 19.08 С 5 20 км 10/10 600 м
[Sc]
+23.3 +16.4 65 +28 +28 душно 1019.3 1005.4 +15.2
09 19.08 СЗ 2 20 км слаб. ливневой дождь 10/10 600 м
[Sc]
+22.3 +15.8 67 +26 +26 жарко 1019.6 1005.7
12 19.08 С 5 20 км слаб. ливневой дождь 10/10 600 м
[Cb cap]
+22.8 +11.4 49 +25 +25 комфорт 1019.5 1005.6
15 19.08 СЗ 2 20 км {ливн. осадки} 10/10 600 м
[Cb cap]
+20.3 +13.3 64 +23 +23 комфорт 1020.6 1006.6 +23.4
18 19.08 СЗ 3 20 км {ливн. осадки} 10/10 600 м
[Sc]
+19.7 +12.0 61 +21 +21 комфорт 1020.6 1006.6 +23.4 0.0
21 19.08 С 2 20 км 4/0
[Ac trans]
+14.2 +10.0 76 +14 +14 по сезону 1020.7 1006.3
00 20.08 С 2 20 км 4/3 1000 м
[Sc Ac trans]
+11.4 +9.4 88 +10 +10 по сезону 1021.3 1006.9
03 20.08 СЗ 3 20 км ясно +18.1 +10.9 63 +18 +22 по сезону 1021.6 1007.5
06 20.08 СЗ 3 20 км 3/3 1000 м
[Cb cap]
+21.6 +6.7 38 +22 +29 комфорт 1021.4 1007.4 +11.3
09 20.08 С 5 20 км 3/1 1000 м
[Cu hum Ci fib]
+23.8 +5.1 30 +24 +28 комфорт 1020.0 1006.1
12 20.08 СЗ 2 20 км 3/1 1000 м
[Cu hum Ac trans]
+24.2 +4.9 29 +24 +25 комфорт 1018.8 1004.9
15 20.08 З 1 20 км 1/0
[Ac trans]
+17.4 +6.5 49 +18 +18 прохладно 1018.9 1004.8 +24.5
18 20.08 ЮЗ 1 20 км ясно +13.2 +5.8 61 +14 +14 по сезону 1018.0 1003.7 +24.5
21 20.08 штиль 0 20 км 1/0
[Ci fib]
+9.8 +5.6 75 +9 +9 прохладно 1017.0 1002.5
00 21.08 СЗ 1 20 км 4/0
[Ac trans Ci fib]
+9.2 +6.6 84 +9 +9 по сезону 1016.1 1001.6
03 21.08 С 1 20 км 6/0
[Ac trans Ci fib]
+18.3 +7.9 51 +20 +24 тепло 1015.2 1001.2
06 21.08 СЗ 2 20 км 9/8 600 м
[Cb cap Ac trans]
+22.3 +7.0 37 +23 +25 комфорт 1014.0 1000.1 +8.9
09 21.08 С 4 20 км 10/9 600 м
[Cb cap Ac trans]
+22.0 +6.3 36 +23 +23 комфорт 1013.3 999.4
12 21.08 С 2 20 км {ливн. осадки} 8/5 1000 м
[Cb cap Ac trans Ci fib]
+20.8 +8.4 45 +23 +23 комфорт 1012.4 998.5
15 21.08 С 1 20 км 9/8 600 м
[Cb cap Ac trans]
+18.3 +8.5 53 +20 +20 тепло 1011.7 997.7 +23.8
18 21.08 штиль 0 10 км слаб. ливневой дождь 10/10 600 м
[Cb cap]
+14.2 +12.9 92 +14 +14 по сезону 1011.4 997.2 +23.8 0.0
21 21.08 СВ 1 10 км слаб. ливневой дождь 10/10 600 м
[Cb cap]
+13.6 +13.1 97 +14 +14 по сезону 1009.7 995.5
00 22.08 СВ 1 20 км {ливн. осадки} 10/10 600 м
[Cb cap]
+13.5 +13.0 97 +14 +14 тепло 1009.6 995.4
03 22.08 С 4 20 км 10/10 600 м
[Cb cap]
+14.7 +13.6 93 +13 +13 прохладно 1009.5 995.4
06 22.08 СВ 6 20 км 9/9 600 м
[Cb cap Ac trans]
+18.4 +11.1 62 +18 +19 прохладно 1009.5 995.6 +13.4 9
09 22.08 СВ 6 20 км 8/8 600 м
[Cb cap Ac trans]
+21.6 +6.8 38 +22 +23 комфорт 1009.5 995.6
12 22.08 С 8 20 км в посл. час ливневой дождь 8/8 600 м
[Cb cap]
+19.7 +7.4 45 +20 +20 прохладно 1010.6 996.6
15 22.08 С 3 20 км 8/6 600 м
[Cb cap Ac trans]
+16.2 +9.0 62 +16 +16 прохладно 1012.4 998.2 +22.2
18 22.08 СЗ 3 20 км 3/0
[Ac trans]
+14.4 +8.5 68 +14 +14 по сезону 1013.3 999.0 +22.2 0.0
21 22.08 СЗ 1 20 км ясно +11.1 +8.9 86 +11 +11 по сезону 1014.5 1000.1
00 23.08 З 1 20 км 8/8 600 м
[Cb cap]
+10.4 +8.8 90 +10 +10 по сезону 1016.3 1001.8
03 23.08 СЗ 3 20 км 6/3 1000 м
[Sc Ac trans]
+15.7 +11.2 75 +15 +17 по сезону 1017.9 1003.7
06 23.08 СЗ 5 20 км 8/6 1000 м
[Cb cap Ac trans]
+21.4 +12.0 55 +24 +25 комфорт 1017.8 1003.9 +10.2
09 23.08 С 4 20 км 6/4 1000 м
[Cu hum Ac trans]
+24.3 +9.4 39 +25 +28 комфорт 1017.5 1003.7
12 23.08 С 3 20 км 6/3 1000 м
[Cu hum Ac trans]
+24.0 +8.5 37 +25 +25 комфорт 1017.4 1003.6
15 23.08 З 1 20 км 4/0
[Ac trans]
+17.7 +12.1 70 +19 +19 по сезону 1018.7 1004.6 +24.9
18 23.08 З 1 20 км 3/0
[Ci fib]
+15.3 +11.8 80 +16 +16 тепло 1018.8 1004.6 +24.9
21 23.08 З 1 20 км ясно +12.5 +9.3 81 +13 +13 по сезону 1019.3 1004.9
00 24.08 штиль 0 20 км ясно +10.8 +9.0 89 +10 +10 по сезону 1019.9 1005.4
03 24.08 З 1 20 км 1/0
[Ac trans]
+17.1 +11.6 70 +18 +23 тепло 1020.4 1006.2
06 24.08 ЮЗ 3 20 км 6/3 1000 м
[Cb cap Ac trans]
+25.4 +10.8 40 +26 +31 жарко 1020.0 1006.2 +10.8
09 24.08 З 5 20 км 8/6 600 м
[Cb cap Ac trans]
+26.6 +8.8 33 +27 +28 жарко 1018.5 1004.8
12 24.08 ЮЗ 3 20 км 3/3 1000 м
[Cb cap]
+26.6 +9.4 34 +27 +28 жарко 1017.5 1003.8
15 24.08 ЮЗ 2 20 км 4/3 1000 м
[Cb cap Ac trans]
+20.7 +10.4 52 +23 +23 комфорт 1018.0 1004.1 +27.3
18 24.08 З 2 20 км 8/4 1000 м
[Cb cap Ac trans]
+21.8 +9.3 45 +23 +23 комфорт 1017.6 1003.6 +27.3

 

Местоположение метеостанции Павлодар (Павлодарская область, Казахстан): широта 52.30 долгота 76.93 высота над уровнем моря 122 м.

В архиве по умолчанию представлена погода в Павлодаре за последнюю неделю. Архивные данные за месяц целиком и за предыдущие месяцы, начиная с января 2011 года, Вы можете получить, выбрав интересующий диапазон дат из раскрывающегося списка и нажав кнопку "Ввод!".


*Определитесь, кто Вы:
робот инопланетянин человек

Внимание! Время в таблицах - всемирное. Для получения местного времени необходимо прибавить поправку, которая равна 6 ч.

Смотрите также архив погоды в соседних городах и на ближайших метеорологических станциях:

Погода в Аксу (Павлодарская область, Казахстан) (30 км)
Погода в Красноармейке (Павлодарская область, Казахстан) (31 км)
Погода в Акжоле (Павлодарская область, Казахстан) (76 км)
Погода в Успенке (Павлодарская область, Казахстан) (76 км)
Погода в Коктобе (Павлодарская область, Казахстан) (93 км)
Погода в Шарбакты (Павлодарская область, Казахстан) (95 км)
Погода в Актогае (Павлодарская область, Казахстан) (100 км)
Погода в Акку (Павлодарская область, Казахстан) (109 км)
Погода в Лозовой (Павлодарская область, Казахстан) (123 км)
Погода в Федоровке (Костанайская область, Казахстан) (126 км)

Пояснения к столбцам:

Ветер - указаны скорость ветра в м/с - средняя за 10 мин, порывы в срок и между сроками (в фигурных скобках) и направление, откуда дует ветер: С - северный, СВ - северо-восточный, В - восточный, ЮВ - юго-восточный, Ю - южный, ЮЗ - юго-западный, З - западный, СЗ - северо-западный.
Видимость - горизонтальная дальность видимости в метрах или километрах. При видимости от 1 до 10 км при отсутствии осадков обычно наблюдается дымка, при ухудшении видимости до 1 км и менее - туман. В сухую погоду видимость может ухудшаться дымом, пылью или мглою.
Явления - указаны атмосферные явления, наблюдавшиеся в срок или в последний час перед сроком; фигурными скобками обозначены явления, наблюдавшиеся между сроками (за 1-3 часа до срока); квадратными скобками обозначены град или гололедные отложения с указанием их диаметра в мм.
Облачность - указаны через наклонную черту общая и нижняя облачность в баллах и высота нижней границы облаков в метрах; квадратными скобками обозначены формы облаков: Ci - перистые, Cs - перисто-слоистые, Cc - перисто-кучевые, Ac - высококучевые, As - высокослоистые, Sc - слоисто-кучевые, Ns - слоисто-дождевые, Cu - кучевые, Cb - кучево-дождевые. Подробнее классификацию облаков см. в Атласе облаков (PDF).
T - Температура воздуха - температура, измеренная на высоте 2 м над землей.
Td - Температура точки росы - температура, при понижении до которой содержащийся в воздухе водяной пар достигнет насыщения.
f - Относительная влажность воздуха - влажноcть воздуха, измеренная на высоте 2 м над землей.
Te - Эффективная температура - температура, которую ощущает одетый по сезону человек в тени. Характеристика душности погоды. При расчете учитывается влияние влажности воздуха и скорости ветра на теплоощущения человека.
Tes - Эффективная температура на солнце - температура, которую ощущает человек, с поправкой на солнечный нагрев. Характеристика знойности погоды. Зависит от высоты солнца над горизонтом, облачности и скорости ветра. Ночью, в пасмурную погоду, а также при ветре 12 м/с и более поправка равна нулю.
P - Атмосферное давление - приведенное к уровню моря атмосферное давление.
Po - Атмосферное давление - измеренное на уровне метеостанции атмосферное давление.
Tmin - Минимальная температура - минимум температуры воздуха на высоте 2 м над землей.
Tmax - Максимальная температура - максимум температуры воздуха на высоте 2 м над землей.
R - Количество осадков - Количество выпавших осадков за период времени, мм. При наведении курсора мыши на число - период времени, за который выпало указанное количество осадков.
R24 - Количество осадков - Количество выпавших осадков за 24 часа, мм.
S - Снежный покров - Высота снежного покрова, см. При наведении курсора мыши на число - состояние снежного покрова и степень покрытия местности в баллах.